Regional Weather Roundup
Issued by NWS Sioux Falls, SD

Home | Current Version | Previous Version | Text Only | Print | Product List | Glossary On
Versions: 1 2 3 4 5 6 7 8 9 10 11 12 13 14 15 16 17 18 19 20 21 22 23 24 25 26 27 28 29 30 31 32 33 34 35 36 37 38 39 40 41 42 43 44 45 46 47 48 49 50
000
ASUS43 KFSD 291310
RWRFSD

WEATHER ROUNDUP FOR SE SOUTH DAKOTA/SW MINNESOTA/NW IOWA
NATIONAL WEATHER SERVICE SIOUX FALLS SD
800 AM CDT WED MAR 29 2017

NOTE: "FAIR" INDICATES FEW OR NO CLOUDS BELOW 12,000 FEET WITH NO
SIGNIFICANT WEATHER AND OR OBSTRUCTIONS TO VISIBILITY.


SDZ038>040-050-052>070-291400-
SOUTHEAST SOUTH DAKOTA

CITY           SKY/WX    TMP DP  RH WIND       PRES   REMARKS
BROOKINGS      CLOUDY    42  36  79 E5        30.15S
CHAMBERLAIN    CLOUDY    42  42  99 NW5       30.12F
HURON          CLOUDY    41  37  86 NE3       30.14S
MADISON        FAIR      37  37 100 E7        30.15S
MITCHELL       CLOUDY    42  37  82 NE5       30.14R
SIOUX FALLS    CLOUDY    42  39  89 NE5       30.14S
WINNER         FOG       41  41 100 NW3       30.13S VSB 3/4
YANKTON        CLOUDY    45  39  81 NE8       30.11S
$$

MNZ071-072-080-081-089-090-097-098-291400-
SOUTHWEST MINNESOTA

CITY           SKY/WX    TMP DP  RH WIND       PRES   REMARKS
FAIRMONT       CLOUDY    41  38  89 E5        30.18R
JACKSON        CLOUDY    37  36  93 NE6       30.17R
LUVERNE        CLOUDY    37  34  87 N3        30.15R
MARSHALL       CLOUDY    38  34  85 CALM      30.19R
MONTEVIDEO     CLOUDY    36  30  80 CALM      30.19R
PIPESTONE      CLOUDY    41  34  75 CALM      30.15R
REDWOOD FALLS  CLOUDY    42  33  70 E5        30.18R
TRACY          CLOUDY    40  36  88 CALM      30.18R
WINDOM         CLOUDY    39  37  93 E5        30.17R
WORTHINGTON    CLOUDY    38  36  92 NE3       30.16S
$$

IAZ001>003-012>014-020>022-031-032-NEZ013-014-SDZ071-291400-
NORTHWEST IOWA

CITY           SKY/WX    TMP DP  RH WIND       PRES   REMARKS
CHEROKEE       RAIN      43  43  99 E7        30.12R
DENISON        LGT RAIN  43  41  93 E18G24    30.07S
ESTHERVILLE    CLOUDY    40  39  97 E5        30.16S
LE MARS        LGT RAIN  45  45 100 NE9       30.13R
ORANGE CITY    LGT RAIN  45  43  93 E8        30.13R
SHELDON        CLOUDY    41  39  93 NE8       30.13R
SIOUX CITY     LGT RAIN  45  44  97 NE12      30.10R FOG
SPENCER        CLOUDY    43  41  93 NE7       30.14S
STORM LAKE     LGT RAIN  43  41  93 E14       30.11R
$$

ABBREVIATIONS USED IN REMARKS
   TC - TEMPERATURE IN CELSIUS
  WCI - WIND CHILL INDEX
   HX - HEAT INDEX
  VSB - VISIBILITY





USA.gov is the U.S. government's official web portal to all federal, state and local government web resources and services.